NJE234T LIEO-LEIB

Flight info

Callsign NJE234T
Flight time 1h 6m
Altitude 45000
Route SUTAD DCT USEPI DCT GOKMI DCT SUPUX DCT KUPIM DCT SUXER DCT RIPAL DCT MORSS
Aircraft C750/M-SBDE3FGHRWXY/S

Departure

Time 2026-05-05 17:04
Airport Olbia Costa Smeralda Airport (LIEO)

Arrival

Time 2026-05-05 18:10
Airport Ibiza Airport (LEIB)
Time Latitude Longitude Altitude Speed Heading
2026-05-05 16:49 40.90244 9.51870 31 ft 0 kts 56°
2026-05-05 16:56 40.90246 9.51871 31 ft 1 kts 45°
2026-05-05 16:56 40.90255 9.51870 31 ft 2 kts 343°
2026-05-05 16:56 40.90259 9.51854 31 ft 2 kts 261°
2026-05-05 16:57 40.90244 9.51844 31 ft 3 kts 189°
2026-05-05 16:57 40.90214 9.51849 31 ft 4 kts 164°
2026-05-05 16:57 40.90193 9.51861 31 ft 4 kts 150°
2026-05-05 16:57 40.90179 9.51900 31 ft 6 kts 87°
2026-05-05 16:58 40.90188 9.51962 31 ft 8 kts 69°
2026-05-05 16:58 40.90219 9.52034 31 ft 10 kts 57°
2026-05-05 16:58 40.90263 9.52121 31 ft 13 kts 56°
2026-05-05 16:58 40.90318 9.52227 31 ft 15 kts 54°
2026-05-05 16:59 40.90380 9.52352 31 ft 17 kts 55°
2026-05-05 16:59 40.90447 9.52487 31 ft 14 kts 66°
2026-05-05 16:59 40.90452 9.52576 31 ft 5 kts 92°
2026-05-05 16:59 40.90452 9.52588 31 ft 0 kts 93°
2026-05-05 17:01 40.90451 9.52603 31 ft 3 kts 94°
2026-05-05 17:02 40.90451 9.52614 31 ft 1 kts 95°
2026-05-05 17:02 40.90445 9.52650 31 ft 7 kts 115°
2026-05-05 17:02 40.90392 9.52698 31 ft 12 kts 188°
2026-05-05 17:02 40.90340 9.52667 30 ft 1 kts 233°
2026-05-05 17:03 40.90339 9.52666 30 ft 0 kts 233°
2026-05-05 17:03 40.90338 9.52663 30 ft 0 kts 233°
2026-05-05 17:03 40.90335 9.52657 30 ft 5 kts 233°
2026-05-05 17:04 40.90174 9.52347 31 ft 98 kts 236°
2026-05-05 17:04 40.89625 9.51311 163 ft 155 kts 237°
2026-05-05 17:04 40.88978 9.50075 602 ft 175 kts 238°
2026-05-05 17:04 40.88299 9.48660 1254 ft 187 kts 238°
2026-05-05 17:05 40.87642 9.47195 2193 ft 182 kts 237°
2026-05-05 17:05 40.86957 9.45658 2571 ft 207 kts 239°
2026-05-05 17:05 40.86128 9.44105 2504 ft 209 kts 228°
2026-05-05 17:05 40.85140 9.42647 2639 ft 221 kts 229°
2026-05-05 17:06 40.84148 9.40930 3203 ft 249 kts 234°
2026-05-05 17:06 40.83167 9.39010 4261 ft 251 kts 236°
2026-05-05 17:06 40.82182 9.37102 5404 ft 253 kts 234°
2026-05-05 17:06 40.81162 9.35186 6439 ft 257 kts 234°
2026-05-05 17:07 40.80140 9.33249 7505 ft 258 kts 235°
2026-05-05 17:07 40.79111 9.31286 8617 ft 262 kts 234°
2026-05-05 17:07 40.78062 9.29296 9687 ft 268 kts 234°
2026-05-05 17:07 40.76984 9.27258 10420 ft 278 kts 234°
2026-05-05 17:08 40.75797 9.25092 10656 ft 305 kts 232°
2026-05-05 17:08 40.74447 9.22772 10793 ft 332 kts 233°
2026-05-05 17:08 40.73077 9.20301 11564 ft 333 kts 233°
2026-05-05 17:08 40.71688 9.17843 12353 ft 337 kts 233°
2026-05-05 17:09 40.70260 9.15379 13156 ft 339 kts 232°
2026-05-05 17:09 40.68825 9.12891 13888 ft 343 kts 233°
2026-05-05 17:09 40.67382 9.10361 14560 ft 346 kts 233°
2026-05-05 17:09 40.65930 9.07822 15270 ft 348 kts 233°
2026-05-05 17:10 40.64464 9.05273 15978 ft 351 kts 232°
2026-05-05 17:10 40.62982 9.02695 16642 ft 355 kts 232°
2026-05-05 17:10 40.61487 9.00094 17368 ft 358 kts 232°
2026-05-05 17:10 40.60201 8.97265 17960 ft 365 kts 245°
2026-05-05 17:11 40.59423 8.94074 18672 ft 368 kts 255°
2026-05-05 17:11 40.58866 8.90774 19384 ft 370 kts 256°
2026-05-05 17:11 40.58287 8.87467 20113 ft 372 kts 255°
2026-05-05 17:11 40.57693 8.84184 20823 ft 375 kts 255°
2026-05-05 17:12 40.57087 8.80786 21585 ft 377 kts 255°
2026-05-05 17:12 40.56506 8.77473 22370 ft 378 kts 256°
2026-05-05 17:12 40.55908 8.74096 23080 ft 380 kts 255°
2026-05-05 17:12 40.55301 8.70703 23812 ft 382 kts 255°
2026-05-05 17:13 40.54694 8.67307 24477 ft 382 kts 255°
2026-05-05 17:13 40.54085 8.63897 25070 ft 385 kts 255°
2026-05-05 17:13 40.53471 8.60457 25645 ft 388 kts 255°
2026-05-05 17:13 40.52851 8.57002 26221 ft 390 kts 255°
2026-05-05 17:14 40.52224 8.53520 26796 ft 392 kts 255°
2026-05-05 17:14 40.51594 8.50020 27381 ft 395 kts 255°
2026-05-05 17:14 40.50959 8.46501 27925 ft 397 kts 255°
2026-05-05 17:14 40.50318 8.42958 28502 ft 400 kts 255°
2026-05-05 17:15 40.49673 8.39397 29062 ft 402 kts 255°
2026-05-05 17:15 40.49022 8.35808 29609 ft 405 kts 255°
2026-05-05 17:15 40.48366 8.32195 30172 ft 407 kts 254°
2026-05-05 17:15 40.47705 8.28567 30618 ft 410 kts 254°
2026-05-05 17:16 40.47037 8.24912 31072 ft 412 kts 254°
2026-05-05 17:16 40.46372 8.21263 31741 ft 409 kts 254°
2026-05-05 17:16 40.45709 8.17642 32380 ft 407 kts 254°
2026-05-05 17:16 40.45046 8.14033 33005 ft 406 kts 254°
2026-05-05 17:17 40.44384 8.10437 33645 ft 405 kts 255°
2026-05-05 17:17 40.43724 8.06853 34242 ft 403 kts 255°
2026-05-05 17:17 40.43065 8.03282 34813 ft 402 kts 255°
2026-05-05 17:17 40.42425 7.99718 35377 ft 401 kts 257°
2026-05-05 17:18 40.41976 7.96102 35935 ft 401 kts 258°
2026-05-05 17:18 40.41531 7.92514 36608 ft 397 kts 258°
2026-05-05 17:18 40.41076 7.89003 37168 ft 395 kts 258°
2026-05-05 17:18 40.40622 7.85450 37708 ft 394 kts 258°
2026-05-05 17:19 40.40178 7.81905 38261 ft 393 kts 259°
2026-05-05 17:19 40.39733 7.78370 38768 ft 392 kts 259°
2026-05-05 17:19 40.39281 7.74841 39118 ft 393 kts 259°
2026-05-05 17:19 40.38826 7.71292 39439 ft 395 kts 259°
2026-05-05 17:20 40.38371 7.67729 39782 ft 397 kts 259°
2026-05-05 17:20 40.37914 7.64152 40124 ft 399 kts 259°
2026-05-05 17:20 40.37451 7.60559 40477 ft 400 kts 259°
2026-05-05 17:20 40.36986 7.56952 40844 ft 402 kts 258°
2026-05-05 17:21 40.36030 7.49573 40943 ft 420 kts 258°
2026-05-05 17:22 40.34507 7.37876 40947 ft 446 kts 258°
2026-05-05 17:22 40.33443 7.29768 40943 ft 456 kts 258°
2026-05-05 17:23 40.32361 7.21555 40946 ft 458 kts 258°
2026-05-05 17:23 40.31269 7.13321 40940 ft 459 kts 258°
2026-05-05 17:24 40.30171 7.05086 40943 ft 459 kts 258°
2026-05-05 17:24 40.29068 6.96856 40936 ft 459 kts 258°
2026-05-05 17:25 40.27959 6.88626 40935 ft 459 kts 258°
2026-05-05 17:25 40.26843 6.80398 40925 ft 459 kts 258°
2026-05-05 17:26 40.25721 6.72170 40927 ft 459 kts 258°
2026-05-05 17:26 40.24593 6.63944 40922 ft 459 kts 258°
2026-05-05 17:27 40.23460 6.55720 40922 ft 459 kts 258°
2026-05-05 17:27 40.22328 6.47554 40917 ft 459 kts 258°
2026-05-05 17:28 40.21183 6.39337 40925 ft 459 kts 258°
2026-05-05 17:28 40.20032 6.31121 40922 ft 459 kts 258°
2026-05-05 17:29 40.18875 6.22909 40915 ft 459 kts 258°
2026-05-05 17:29 40.17712 6.14697 40920 ft 459 kts 258°
2026-05-05 17:30 40.16543 6.06485 40914 ft 460 kts 257°
2026-05-05 17:30 40.15369 5.98278 40917 ft 459 kts 257°
2026-05-05 17:31 40.14188 5.90073 40917 ft 460 kts 257°
2026-05-05 17:31 40.13009 5.81867 40918 ft 460 kts 257°
2026-05-05 17:32 40.11868 5.73649 40915 ft 460 kts 258°
2026-05-05 17:32 40.10698 5.65446 40902 ft 460 kts 257°
2026-05-05 17:33 40.09534 5.57238 40906 ft 460 kts 258°
2026-05-05 17:33 40.08358 5.49033 40906 ft 460 kts 257°
2026-05-05 17:34 40.07179 5.40829 40904 ft 459 kts 257°
2026-05-05 17:34 40.05993 5.32635 40920 ft 459 kts 257°
2026-05-05 17:35 40.04808 5.24477 40910 ft 457 kts 257°
2026-05-05 17:35 40.03618 5.16332 40910 ft 457 kts 257°
2026-05-05 17:36 40.02421 5.08180 40915 ft 458 kts 257°
2026-05-05 17:36 40.01218 5.00033 40913 ft 457 kts 257°
2026-05-05 17:37 40.00019 4.91945 40908 ft 456 kts 257°
2026-05-05 17:37 39.98806 4.83817 40905 ft 457 kts 257°
2026-05-05 17:38 39.97526 4.75715 40894 ft 456 kts 253°
2026-05-05 17:38 39.95879 4.67736 40895 ft 456 kts 253°
2026-05-05 17:39 39.94254 4.59727 40896 ft 457 kts 253°
2026-05-05 17:39 39.92600 4.51727 40906 ft 457 kts 253°
2026-05-05 17:40 39.90956 4.43729 40908 ft 457 kts 253°
2026-05-05 17:40 39.89276 4.35744 40901 ft 457 kts 251°
2026-05-05 17:41 39.86819 4.28132 40909 ft 456 kts 245°
2026-05-05 17:41 39.84429 4.20481 40916 ft 457 kts 248°
2026-05-05 17:42 39.82011 4.12846 40915 ft 456 kts 246°
2026-05-05 17:42 39.80791 4.09090 40587 ft 442 kts 247°
2026-05-05 17:42 39.79656 4.05465 40015 ft 424 kts 247°
2026-05-05 17:42 39.78566 4.01978 39463 ft 409 kts 247°
2026-05-05 17:43 39.77493 3.98631 38935 ft 394 kts 246°
2026-05-05 17:43 39.76452 3.95400 38384 ft 382 kts 246°
2026-05-05 17:43 39.75446 3.92246 37869 ft 376 kts 246°
2026-05-05 17:43 39.74439 3.89083 37373 ft 382 kts 246°
2026-05-05 17:44 39.73415 3.85885 36871 ft 386 kts 246°
2026-05-05 17:44 39.72378 3.82657 36358 ft 388 kts 246°
2026-05-05 17:44 39.71341 3.79422 35848 ft 389 kts 246°
2026-05-05 17:44 39.70298 3.76174 35330 ft 390 kts 246°
2026-05-05 17:45 39.69252 3.72921 34814 ft 391 kts 246°
2026-05-05 17:45 39.68202 3.69660 34298 ft 392 kts 245°
2026-05-05 17:45 39.67163 3.66437 33771 ft 393 kts 245°
2026-05-05 17:45 39.66106 3.63164 33237 ft 394 kts 245°
2026-05-05 17:46 39.65043 3.59874 32719 ft 397 kts 245°
2026-05-05 17:46 39.63973 3.56566 32194 ft 398 kts 245°
2026-05-05 17:46 39.62898 3.53246 31663 ft 400 kts 246°
2026-05-05 17:46 39.61816 3.49909 31136 ft 402 kts 246°
2026-05-05 17:47 39.60729 3.46559 30602 ft 405 kts 246°
2026-05-05 17:47 39.59635 3.43196 30068 ft 403 kts 246°
2026-05-05 17:47 39.58552 3.39865 29502 ft 399 kts 246°
2026-05-05 17:47 39.57477 3.36563 28976 ft 396 kts 246°
2026-05-05 17:48 39.56409 3.33283 28457 ft 393 kts 246°
2026-05-05 17:48 39.55347 3.30030 27941 ft 391 kts 246°
2026-05-05 17:48 39.54290 3.26799 27430 ft 388 kts 246°
2026-05-05 17:48 39.53594 3.24672 27087 ft 387 kts 246°
2026-05-05 17:49 39.52186 3.20386 26409 ft 385 kts 246°
2026-05-05 17:49 39.51494 3.18275 26077 ft 383 kts 246°
2026-05-05 17:49 39.50455 3.15108 25568 ft 381 kts 246°
2026-05-05 17:49 39.49422 3.11965 25072 ft 378 kts 246°
2026-05-05 17:50 39.48393 3.08840 24570 ft 376 kts 246°
2026-05-05 17:50 39.47369 3.05730 24078 ft 374 kts 246°
2026-05-05 17:50 39.46353 3.02651 23591 ft 370 kts 246°
2026-05-05 17:50 39.45346 2.99598 23061 ft 367 kts 246°
2026-05-05 17:51 39.44344 2.96565 22576 ft 366 kts 246°
2026-05-05 17:51 39.43346 2.93550 22098 ft 363 kts 246°
2026-05-05 17:51 39.42352 2.90551 21616 ft 361 kts 246°
2026-05-05 17:51 39.41366 2.87576 21147 ft 359 kts 246°
2026-05-05 17:52 39.40384 2.84616 20671 ft 357 kts 246°
2026-05-05 17:52 39.39409 2.81680 20202 ft 355 kts 246°
2026-05-05 17:52 39.38437 2.78760 19741 ft 352 kts 246°
2026-05-05 17:52 39.37471 2.75858 19273 ft 351 kts 246°
2026-05-05 17:53 39.36509 2.72972 18811 ft 349 kts 246°
2026-05-05 17:53 39.35552 2.70102 18351 ft 347 kts 246°
2026-05-05 17:53 39.34600 2.67250 17866 ft 345 kts 246°
2026-05-05 17:53 39.33658 2.64434 17412 ft 341 kts 246°
2026-05-05 17:54 39.32722 2.61636 16955 ft 339 kts 246°
2026-05-05 17:54 39.31787 2.58843 16510 ft 341 kts 246°
2026-05-05 17:54 39.30851 2.56049 16069 ft 338 kts 246°
2026-05-05 17:54 39.29918 2.53272 15627 ft 336 kts 246°
2026-05-05 17:55 39.28991 2.50511 15181 ft 334 kts 246°
2026-05-05 17:55 39.28067 2.47763 14744 ft 333 kts 246°
2026-05-05 17:55 39.27147 2.45030 14303 ft 331 kts 246°
2026-05-05 17:55 39.26230 2.42308 13865 ft 330 kts 246°
2026-05-05 17:56 39.25317 2.39601 13403 ft 328 kts 245°
2026-05-05 17:56 39.24419 2.36941 12973 ft 327 kts 245°
2026-05-05 17:56 39.23509 2.34249 12542 ft 327 kts 246°
2026-05-05 17:56 39.22603 2.31567 12114 ft 326 kts 246°
2026-05-05 17:57 39.21696 2.28888 11678 ft 325 kts 246°
2026-05-05 17:57 39.20789 2.26211 11253 ft 325 kts 246°
2026-05-05 17:57 39.19899 2.23587 10831 ft 308 kts 246°
2026-05-05 17:57 39.19072 2.21149 10432 ft 286 kts 246°
2026-05-05 17:58 39.18297 2.18869 10064 ft 272 kts 246°
2026-05-05 17:58 39.17544 2.16656 9704 ft 268 kts 246°
2026-05-05 17:58 39.16799 2.14466 9340 ft 266 kts 246°
2026-05-05 17:58 39.16057 2.12286 8993 ft 265 kts 246°
2026-05-05 17:59 39.15317 2.10114 8640 ft 264 kts 247°
2026-05-05 17:59 39.14579 2.07950 8353 ft 263 kts 247°
2026-05-05 17:59 39.13842 2.05788 8037 ft 264 kts 247°
2026-05-05 17:59 39.13104 2.03628 7693 ft 263 kts 247°
2026-05-05 18:00 39.12368 2.01475 7348 ft 262 kts 248°
2026-05-05 18:00 39.11633 1.99327 7004 ft 262 kts 248°
2026-05-05 18:00 39.10899 1.97181 6655 ft 261 kts 248°
2026-05-05 18:00 39.10166 1.95040 6314 ft 261 kts 247°
2026-05-05 18:01 39.09434 1.92904 5957 ft 260 kts 247°
2026-05-05 18:01 39.08707 1.90787 5614 ft 258 kts 247°
2026-05-05 18:01 39.07980 1.88667 5271 ft 259 kts 247°
2026-05-05 18:01 39.07256 1.86558 4927 ft 256 kts 246°
2026-05-05 18:02 39.06538 1.84470 4588 ft 254 kts 246°
2026-05-05 18:02 39.05823 1.82399 4243 ft 250 kts 245°
2026-05-05 18:02 39.05043 1.80481 3917 ft 236 kts 242°
2026-05-05 18:02 39.04322 1.78635 3608 ft 226 kts 243°
2026-05-05 18:03 39.03633 1.76864 3314 ft 217 kts 243°
2026-05-05 18:03 39.02951 1.75155 3035 ft 213 kts 242°
2026-05-05 18:03 39.02275 1.73494 2981 ft 207 kts 240°
2026-05-05 18:03 39.01548 1.71888 2991 ft 209 kts 240°
2026-05-05 18:04 39.00850 1.70247 2997 ft 210 kts 242°
2026-05-05 18:04 39.00171 1.68602 3004 ft 207 kts 242°
2026-05-05 18:04 38.99492 1.66954 3002 ft 210 kts 242°
2026-05-05 18:04 38.98811 1.65301 3006 ft 209 kts 242°
2026-05-05 18:05 38.98130 1.63649 3004 ft 209 kts 242°
2026-05-05 18:05 38.97447 1.61993 3007 ft 210 kts 242°
2026-05-05 18:05 38.96767 1.60342 2998 ft 209 kts 242°
2026-05-05 18:05 38.96087 1.58685 2996 ft 209 kts 242°
2026-05-05 18:06 38.95406 1.57024 2992 ft 210 kts 242°
2026-05-05 18:06 38.94960 1.55941 2951 ft 200 kts 242°
2026-05-05 18:06 38.94145 1.53963 2631 ft 178 kts 241°
2026-05-05 18:06 38.93575 1.52580 2401 ft 171 kts 240°
2026-05-05 18:07 38.93040 1.51279 2179 ft 166 kts 239°
2026-05-05 18:07 38.92506 1.49984 1969 ft 167 kts 240°
2026-05-05 18:07 38.91978 1.48689 1753 ft 148 kts 240°
2026-05-05 18:07 38.91539 1.47616 1566 ft 127 kts 239°
2026-05-05 18:08 38.91142 1.46652 1396 ft 122 kts 239°
2026-05-05 18:08 38.90754 1.45713 1255 ft 122 kts 238°
2026-05-05 18:08 38.90362 1.44762 1095 ft 119 kts 238°
2026-05-05 18:08 38.89980 1.43835 975 ft 114 kts 239°
2026-05-05 18:09 38.89628 1.42969 935 ft 109 kts 240°
2026-05-05 18:09 38.89249 1.42079 774 ft 117 kts 240°
2026-05-05 18:09 38.88862 1.41132 567 ft 122 kts 242°
2026-05-05 18:09 38.88438 1.40168 304 ft 123 kts 243°
2026-05-05 18:10 38.88057 1.39205 145 ft 119 kts 243°
2026-05-05 18:10 38.87683 1.38303 17 ft 107 kts 243°
2026-05-05 18:10 38.87375 1.37542 6 ft 82 kts 244°
2026-05-05 18:10 38.87183 1.37064 7 ft 39 kts 241°
2026-05-05 18:11 38.87106 1.36829 6 ft 23 kts 264°
2026-05-05 18:11 38.87102 1.36704 5 ft 8 kts 270°